| time (UTC) | temp F | wind direction | speed MPH | gust MPH | rain 1hr in | rain 24hr in | rain mn in | humidity % | barometer mb |
| 20260904190006 | 98 | 136 | 3.0 | 9.0 | 0.00 | 0.00 | 0.00 | 37 | 1009.0 |
| 20260904184501 | 98 | 224 | 2.0 | 9.0 | 0.00 | 0.00 | 0.00 | 37 | 1009.2 |
| 20260904183058 | 97 | 179 | 2.0 | 10.0 | 0.00 | 0.00 | 0.00 | 38 | 1009.4 |
| 20260904181556 | 97 | 86 | 1.0 | 11.0 | 0.00 | 0.00 | 0.00 | 40 | 1009.6 |
| 20260904180054 | 96 | 167 | 3.0 | 9.0 | 0.00 | 0.00 | 0.00 | 40 | 1009.7 |
| 20260904174552 | 95 | 188 | 4.0 | 11.0 | 0.00 | 0.00 | 0.00 | 41 | 1009.8 |
| 20260904173102 | 94 | 35 | 3.0 | 11.0 | 0.00 | 0.00 | 0.00 | 44 | 1009.9 |
| 20260904171547 | 94 | 249 | 5.0 | 14.0 | 0.00 | 0.00 | 0.00 | 44 | 1010.0 |
| 20260904170043 | 93 | 226 | 5.0 | 11.0 | 0.00 | 0.00 | 0.00 | 45 | 1009.9 |
| 20260904164545 | 92 | 128 | 6.0 | 12.0 | 0.00 | 0.00 | 0.00 | 47 | 1009.7 |
| 20260904163039 | 92 | 328 | 5.0 | 11.0 | 0.00 | 0.00 | 0.00 | 48 | 1009.6 |
| 20260904161544 | 92 | 249 | 6.0 | 13.0 | 0.00 | 0.00 | 0.00 | 48 | 1009.6 |
| 20260904160037 | 91 | 179 | 7.0 | 13.0 | 0.00 | 0.00 | 0.00 | 49 | 1009.7 |
| 20260904154530 | 90 | 131 | 6.0 | 12.0 | 0.00 | 0.00 | 0.00 | 52 | 1009.6 |
| 20260904153027 | 90 | 120 | 5.0 | 10.0 | 0.00 | 0.00 | 0.00 | 53 | 1009.4 |
| 20260904151535 | 89 | 120 | 4.0 | 12.0 | 0.00 | 0.00 | 0.00 | 55 | 1009.4 |
| 20260904150023 | 89 | 333 | 5.0 | 9.0 | 0.00 | 0.00 | 0.00 | 54 | 1009.3 |
| 20260904144518 | 88 | 142 | 2.0 | 8.0 | 0.00 | 0.00 | 0.00 | 55 | 1009.2 |
| 20260904143016 | 89 | 56 | 2.0 | 8.0 | 0.00 | 0.00 | 0.00 | 55 | 1009.0 |
| 20260904141513 | 88 | 300 | 2.0 | 6.0 | 0.00 | 0.00 | 0.00 | 57 | 1009.0 |
| 20260904140011 | 87 | 143 | 2.0 | 5.0 | 0.00 | 0.00 | 0.00 | 59 | 1008.7 |
| 20260904134509 | 85 | 77 | 1.0 | 4.0 | 0.00 | 0.00 | 0.00 | 60 | 1008.5 |